Wind_Speed
56 56 55 55 54 54 53 53 53 53 53 52 52 52 52 52 51 51 51 51 51 52 52 52 53 53 53 53 53 53 53 52 52 52 52 52 53 53 53 53 54 54 54 53 52 51 50 49 48 48 47 47 46 44 41 40 41 42 43 41 40 39 38 38 37 37 37 36 35 34 34 33 33 32 32 31 31 31 31 32 33 33 33 33 33 32
55 54 54 54 53 53 53 53 53 53 53 52 52 52 51 51 51 50 50 50 50 51 51 52 52 52 53 53 53 53 54 54 54 54 53 53 53 53 53 54 54 54 54 53 52 51 50 49 48 48 48 48 48 46 44 42 42 43 43 42 41 40 39 39 38 38 37 37 36 35 35 34 34 33 32 32 31 31 32 32 33 33 33 33 33 32
55 55 54 54 54 54 54 54 54 54 54 54 53 53 52 52 51 51 50 50 50 50 50 51 51 51 52 52 53 53 54 54 54 54 54 54 54 54 54 54 54 54 54 53 52 51 51 50 49 48 48 48 48 47 45 43 43 43 44 43 42 41 40 40 39 39 38 38 37 36 36 35 34 34 33 32 32 32 32 33 33 33 33 33 32 32
56 56 56 56 56 56 56 56 56 57 57 56 56 55 55 54 53 52 52 51 51 51 50 50 50 51 51 51 52 52 53 54 54 54 55 55 55 55 55 55 55 55 54 54 53 52 51 50 49 48 48 47 47 47 46 44 44 44 44 44 43 42 41 41 40 40 39 38 38 37 36 36 35 34 34 33 32 32 32 33 33 34 34 33 32 31
58 58 58 58 58 58 58 58 58 59 59 58 58 58 57 56 56 55 54 54 53 52 52 52 51 51 51 51 51 51 52 52 53 54 54 54 55 55 55 55 55 55 54 54 53 52 52 51 49 48 47 47 46 46 45 45 44 45 44 44 43 43 42 42 41 41 40 39 39 38 37 37 36 35 34 33 33 33 33 33 34 34 34 33 32 31
59 59 59 59 59 59 59 59 59 60 60 60 60 59 59 59 58 57 57 56 55 55 54 54 53 53 52 52 51 51 51 52 52 52 53 53 54 54 54 54 54 54 54 54 53 52 52 51 50 48 47 46 45 45 44 44 45 45 45 44 44 43 43 43 42 42 41 40 40 39 38 37 37 36 35 34 33 33 33 34 34 34 34 33 32 31
60 60 60 60 60 60 59 60 60 60 61 61 61 61 60 60 60 59 59 58 58 57 56 56 55 55 54 54 53 53 52 52 52 52 52 52 53 53 53 53 54 53 53 53 52 52 51 50 49 48 47 46 45 44 44 44 44 45 45 45 44 44 44 43 43 43 42 41 41 40 39 38 37 36 36 35 34 34 34 34 34 34 34 33 32 31
62 62 61 61 61 61 61 60 60 61 61 62 62 61 61 61 61 61 60 60 59 59 58 58 57 57 56 55 55 55 54 54 53 53 52 52 52 52 52 52 53 53 52 52 52 51 51 50 49 48 47 46 45 44 44 44 44 45 45 45 45 45 44 44 44 44 43 42 42 41 40 39 38 37 36 36 35 35 34 34 34 34 34 33 32 31
64 63 63 63 63 63 62 62 62 62 62 63 63 62 62 62 62 61 61 61 61 60 60 59 59 58 58 57 57 57 56 56 55 54 54 53 53 52 52 52 52 52 52 51 51 51 50 49 49 48 47 46 46 45 45 45 45 45 45 45 45 45 45 45 45 45 44 44 43 42 41 40 39 38 37 36 36 35 35 35 35 34 34 33 32 30
66 65 65 65 64 64 64 64 63 63 64 64 64 64 63 63 63 62 62 62 62 61 61 61 60 60 59 59 59 58 58 58 57 56 56 55 54 54 53 53 53 52 52 51 51 51 50 50 49 49 48 47 47 46 46 46 46 46 46 46 46 46 46 46 46 45 45 45 44 43 42 41 40 39 38 37 37 36 36 35 35 34 34 33 32 30
67 67 67 67 66 66 66 66 65 65 65 65 66 65 65 64 64 64 63 63 63 62 62 62 62 61 61 60 60 60 59 59 59 58 58 57 56 56 55 54 54 53 53 52 52 51 51 51 50 50 49 49 49 48 48 47 47 47 47 47 47 47 47 47 47 46 46 45 45 44 43 42 41 40 39 38 38 37 36 36 35 35 34 33 32 30
69 69 69 69 68 68 68 67 67 67 67 67 67 67 66 66 66 66 66 65 64 64 64 64 63 63 62 62 61 61 61 60 60 60 59 59 58 58 57 56 56 55 55 54 53 53 53 52 52 52 51 51 50 50 50 49 49 49 49 48 48 48 48 48 47 47 47 46 46 45 44 43 42 41 40 39 38 38 37 36 35 35 34 33 32 30
72 72 71 71 71 70 70 70 69 69 69 69 69 69 68 68 68 68 68 67 66 65 65 65 65 64 64 63 63 63 62 62 61 61 60 60 60 59 59 58 58 57 57 56 56 55 55 54 54 54 54 53 53 52 52 51 51 51 50 50 50 49 49 49 48 48 48 47 46 46 45 44 43 42 41 40 39 38 37 37 36 35 34 33 32 30
75 74 74 74 73 73 73 72 72 72 71 71 71 71 70 70 70 70 70 69 68 67 67 66 66 66 65 65 64 64 64 63 63 62 61 61 60 60 60 60 60 59 59 58 58 57 57 57 57 56 56 56 55 54 54 53 53 52 52 51 51 50 50 49 49 49 48 48 47 46 45 45 44 43 42 41 40 39 38 37 36 35 34 33 32 30
77 77 77 76 76 75 75 75 75 74 74 73 73 73 73 73 72 72 72 71 70 69 69 68 68 67 67 66 65 65 65 65 64 64 63 62 61 61 61 61 61 61 60 60 60 59 59 59 59 59 58 58 57 56 56 55 55 54 53 53 52 51 51 50 50 49 49 48 48 47 46 45 44 43 42 41 40 39 38 37 36 35 34 33 32 30
80 80 79 79 78 78 78 77 77 77 77 76 76 75 75 75 75 74 74 73 73 72 71 71 70 69 68 67 67 67 66 66 66 65 64 63 63 62 62 62 62 62 62 61 61 61 60 60 60 60 60 60 59 58 57 57 56 56 55 54 53 52 52 51 51 50 49 49 48 47 46 45 45 44 43 42 41 40 39 38 37 35 34 33 31 30
83 82 82 82 81 81 80 80 80 80 79 79 78 78 77 77 77 76 76 76 75 75 74 73 72 71 70 69 68 68 68 68 67 67 66 65 64 64 63 64 64 63 63 62 62 62 62 62 62 61 61 61 60 60 59 58 57 57 56 55 54 53 53 52 51 51 50 49 48 48 47 46 45 44 43 42 41 40 39 38 37 36 34 33 31 30
86 86 85 85 84 84 83 83 82 82 82 82 81 81 80 79 79 79 78 78 78 77 76 76 75 74 72 71 70 69 69 69 69 69 68 67 66 65 65 65 65 64 63 63 63 63 63 63 62 62 62 62 62 61 60 59 58 58 57 56 55 54 53 53 52 51 50 50 49 48 47 46 45 45 44 43 42 40 39 38 37 36 34 33 32 30
90 90 89 89 88 88 87 86 86 86 85 85 84 84 83 82 82 81 80 80 80 79 79 78 77 76 75 73 72 71 70 70 70 70 70 68 67 67 66 66 66 65 64 64 63 63 63 63 63 63 63 63 62 62 61 60 59 59 58 57 56 55 54 53 52 52 51 50 49 48 47 47 46 45 44 43 42 41 40 39 38 36 35 33 32 30
94 93 93 93 92 92 91 91 90 89 89 89 88 88 87 86 85 84 83 83 82 82 81 81 80 79 77 76 75 74 73 72 72 72 71 70 69 68 67 67 67 67 66 65 64 64 64 64 64 63 63 63 63 62 61 61 60 59 58 58 57 56 55 54 53 52 51 50 49 49 48 47 46 45 45 44 43 42 40 39 38 37 36 34 32 31
97 97 97 96 96 96 96 95 94 94 93 93 93 92 92 91 89 88 87 86 85 85 84 83 82 81 80 79 78 78 76 75 74 74 73 72 71 70 69 68 68 68 67 66 65 64 64 64 64 64 63 63 63 62 62 61 60 60 59 58 57 56 56 55 53 52 52 51 50 49 48 47 46 46 45 44 43 42 41 40 39 38 36 35 33 31
101 101 101 101 100 100 100 99 99 98 98 98 97 97 96 95 94 93 92 90 89 88 87 86 85 84 83 82 82 81 80 78 77 76 75 74 73 71 70 69 69 69 68 67 66 65 65 65 65 64 64 63 63 63 62 61 61 60 59 59 58 57 56 55 54 53 52 51 50 49 48 47 47 46 45 45 44 43 41 40 39 38 37 35 33 32
106 105 105 105 104 104 104 104 103 103 102 102 101 101 100 99 98 97 97 95 93 92 91 90 88 87 85 85 85 84 83 81 80 79 78 76 75 73 71 70 70 70 69 68 67 66 66 66 65 65 64 64 63 63 62 62 61 60 60 59 58 57 56 55 54 53 52 51 50 49 49 48 47 46 46 45 44 43 42 41 40 39 37 35 34 32
110 110 109 109 109 109 108 108 108 107 107 106 106 105 105 104 103 102 101 99 98 97 95 94 92 90 88 88 87 87 85 84 82 81 80 78 77 75 73 72 71 71 70 69 68 67 67 67 66 65 65 64 64 63 63 62 61 61 60 59 58 58 57 56 55 54 52 51 51 50 49 48 47 46 46 45 44 43 42 41 40 39 37 36 34 32
114 114 114 113 113 113 112 112 112 111 111 110 109 109 108 107 106 105 104 103 102 100 99 98 95 93 92 91 90 89 88 87 85 84 82 81 79 77 75 73 72 72 71 70 69 69 68 68 67 66 65 65 64 64 63 62 62 61 60 59 59 58 57 56 55 54 53 52 51 50 49 48 47 47 46 45 44 43 43 41 40 39 38 36 34 33
116 116 116 116 116 115 115 115 114 114 113 112 111 110 109 108 107 106 105 104 103 102 101 100 98 97 95 93 91 90 90 89 87 86 85 84 82 80 78 75 74 73 73 72 71 70 69 69 68 67 66 66 65 64 63 63 62 61 61 60 59 58 57 56 55 54 53 52 51 50 49 48 48 47 46 46 45 44 43 42 41 39 38 36 34 33
115 115 115 115 114 114 114 114 113 113 112 111 110 110 109 107 106 105 104 104 103 102 101 100 100 99 97 95 93 92 92 90 89 88 87 86 84 83 80 78 76 75 74 73 72 71 71 70 69 68 67 66 65 65 64 63 62 62 61 60 59 58 57 57 55 54 53 52 51 50 49 49 48 47 47 46 45 44 43 42 41 39 38 36 35 33
111 111 110 110 110 109 109 109 108 108 108 107 107 106 106 105 103 102 102 103 102 100 99 99 99 98 97 95 94 94 93 91 90 90 89 88 87 85 83 81 78 77 76 75 74 73 72 71 70 69 68 67 66 65 64 64 63 62 61 60 60 59 58 57 56 55 54 52 51 50 50 49 48 47 47 46 45 44 43 42 41 40 38 36 35 33
107 106 105 104 104 103 102 102 102 101 101 101 100 100 101 100 99 99 100 100 98 97 96 97 97 97 96 95 95 95 93 92 91 91 90 89 88 87 86 83 80 79 78 77 75 74 73 72 71 70 69 68 67 66 65 64 63 62 61 61 60 59 58 57 56 55 54 53 52 51 50 49 48 48 47 46 46 45 44 43 41 40 38 37 35 34
102 101 99 99 98 97 96 95 95 95 94 94 94 94 94 95 94 95 96 95 94 93 93 94 94 94 93 94 94 94 94 93 92 91 90 89 89 89 87 84 82 81 80 78 76 75 74 73 72 70 69 68 67 66 65 64 63 62 62 61 60 59 58 57 56 55 54 53 52 51 50 49 49 48 47 47 46 45 44 43 41 40 39 37 36 34
97 95 94 94 93 92 91 91 90 90 89 89 89 89 89 89 89 89 90 90 89 89 90 90 91 91 91 92 93 94 94 94 92 90 89 89 90 90 88 85 84 83 82 80 78 76 75 74 73 71 70 69 68 67 66 65 64 63 62 61 60 59 58 57 56 55 54 53 52 51 50 50 49 48 48 47 46 45 44 43 42 40 39 38 36 35
92 91 91 90 90 89 88 88 88 87 86 86 85 85 85 85 85 85 85 85 85 85 85 86 87 88 89 90 91 92 93 93 91 89 88 88 89 90 88 86 85 84 83 81 79 78 76 75 73 72 71 70 69 68 67 65 64 63 62 61 60 59 58 57 56 55 54 53 52 51 50 50 49 48 48 47 46 45 44 43 42 41 39 38 36 35
89 89 89 88 88 87 87 86 86 85 85 84 83 83 82 82 82 81 81 81 81 81 82 83 84 85 86 88 89 91 91 91 89 88 87 88 89 89 88 87 86 85 84 82 81 79 78 76 74 73 72 71 70 69 67 66 65 63 62 61 60 59 58 57 56 55 54 53 52 51 51 50 49 48 48 47 46 46 44 43 42 41 40 38 37 35
88 88 87 87 86 86 85 84 84 83 82 82 81 80 80 80 79 79 79 79 78 79 79 80 81 82 83 85 87 88 89 89 87 86 86 87 88 88 87 86 86 86 85 83 82 81 79 77 75 74 73 72 71 69 68 67 65 64 63 62 60 59 59 58 57 56 54 53 52 52 51 50 49 49 48 47 46 46 45 44 42 41 40 38 37 35
87 86 85 85 84 83 82 81 81 80 79 78 78 77 77 77 77 77 77 76 76 77 77 78 78 80 81 83 84 85 86 86 85 84 85 86 87 87 86 86 85 86 85 84 83 81 79 78 76 75 73 72 71 70 69 67 66 64 63 62 61 60 59 58 57 56 55 54 53 52 51 50 49 49 48 47 47 46 45 44 42 41 40 38 36 35
83 82 81 80 80 79 78 77 76 75 74 73 73 73 72 73 73 74 74 74 74 75 75 76 77 78 79 80 81 82 83 83 83 83 84 85 87 86 85 85 85 85 84 84 83 82 80 78 77 75 74 72 71 70 69 68 66 65 64 63 61 60 59 58 57 56 55 54 53 52 51 50 50 49 48 48 47 46 45 44 42 41 40 38 36 34
76 75 75 74 73 73 72 71 71 70 69 68 68 67 68 68 69 70 71 72 72 73 73 74 75 76 76 77 78 79 80 81 81 81 83 84 85 85 84 84 84 83 83 83 83 82 80 78 77 75 74 73 71 70 69 67 66 65 64 63 62 61 60 59 57 56 55 54 53 52 51 51 50 49 49 48 47 46 45 43 42 41 39 37 36 34
68 68 67 67 66 66 65 65 65 64 64 63 63 62 63 64 65 67 68 69 69 70 71 72 73 74 75 75 76 76 77 78 79 79 80 81 82 83 83 83 83 82 82 82 82 81 79 78 76 75 73 73 71 70 68 67 66 65 64 63 62 61 60 59 58 56 55 54 53 52 51 51 50 49 49 48 47 45 44 43 41 40 38 37 35 34
61 61 60 60 60 59 59 59 59 59 59 58 58 58 59 60 61 63 64 66 67 68 69 70 71 72 73 73 74 74 75 75 76 76 76 77 79 81 82 82 81 81 81 81 81 80 79 77 76 74 73 72 71 69 68 67 66 65 64 63 62 61 60 59 58 56 55 54 53 52 52 51 50 49 48 47 46 45 43 42 41 39 38 36 35 34
54 54 54 54 54 54 54 54 54 54 54 54 54 55 55 56 58 59 61 62 63 64 65 67 68 69 71 71 72 72 73 73 72 71 70 72 76 79 80 79 78 78 78 79 79 79 78 77 75 74 72 71 70 68 67 66 65 64 63 62 61 61 60 59 57 56 55 54 53 52 51 51 50 49 48 46 45 44 43 41 40 39 38 36 35 34
50 49 49 49 49 49 50 50 50 50 50 50 50 51 52 53 54 55 57 59 60 61 62 63 64 66 68 69 70 70 71 70 69 68 69 72 75 78 78 77 75 74 75 76 77 77 77 75 74 72 71 70 69 68 66 66 65 64 63 62 61 60 59 58 57 56 55 54 53 52 51 50 49 48 47 46 44 43 42 41 40 39 37 36 35 34
46 46 46 46 46 46 46 46 46 46 46 46 47 47 48 49 50 52 53 55 56 57 58 58 60 62 65 66 68 68 69 68 68 69 70 73 76 76 75 73 72 71 71 72 73 74 75 74 73 71 70 68 67 66 65 65 64 63 62 61 61 60 59 58 57 56 54 53 52 51 50 49 49 47 46 45 44 43 42 41 40 38 37 35 34 33
44 44 44 43 43 43 43 43 43 43 43 43 44 44 45 46 47 49 50 51 52 53 53 54 56 59 61 64 65 66 66 67 68 69 71 72 73 72 70 68 68 68 68 68 69 71 71 71 71 70 68 67 66 65 64 63 63 62 61 61 60 59 58 57 56 55 53 52 51 50 49 49 48 47 45 44 43 42 41 40 39 38 36 35 34 33
44 43 43 42 42 41 41 41 41 41 41 41 41 42 42 43 45 46 47 48 48 48 49 50 52 55 58 61 62 63 64 65 66 67 69 69 68 67 65 64 64 63 63 64 65 66 67 68 68 68 67 65 64 63 63 62 61 61 60 60 59 58 57 56 55 54 52 52 50 49 48 48 47 46 45 44 43 42 41 40 39 37 36 34 33 33
44 43 42 42 41 40 40 39 39 39 39 39 39 39 40 41 42 44 45 45 45 45 45 46 48 51 54 57 58 59 60 61 63 64 64 64 63 62 61 60 60 59 59 60 61 62 63 64 64 65 64 63 62 62 61 60 59 59 59 58 58 57 57 55 54 52 52 50 49 48 48 48 47 45 44 43 42 41 40 39 38 36 35 34 33 33
46 45 43 42 40 39 38 37 37 37 37 37 37 37 38 39 40 42 42 42 42 42 42 42 44 46 49 52 54 55 56 57 58 59 59 60 60 59 57 54 53 55 55 56 57 58 59 60 61 61 61 60 60 60 59 58 58 57 57 57 56 56 55 54 53 52 51 49 47 47 48 47 46 45 44 43 42 41 40 38 37 36 35 34 33 33
47 46 45 43 41 39 37 36 35 35 35 35 35 35 36 37 38 39 39 39 39 39 39 39 40 43 45 47 48 49 50 51 52 53 54 55 56 56 54 50 48 49 52 53 54 55 56 57 58 58 57 57 57 57 57 57 56 56 55 55 55 54 54 53 52 51 50 48 47 47 48 47 46 44 43 42 41 40 39 38 37 35 34 33 33 34
46 46 45 43 41 39 36 34 33 33 33 33 33 34 34 35 36 36 36 36 36 36 36 36 38 39 41 41 42 43 44 44 45 46 48 50 52 53 52 50 48 48 49 51 52 53 54 55 55 55 55 55 55 55 55 55 55 54 54 54 53 53 52 51 51 50 49 48 48 48 49 47 45 44 43 41 40 39 38 37 36 35 34 33 34 34
45 44 44 42 40 37 35 33 31 31 30 31 31 32 32 33 33 33 33 33 32 33 33 34 35 36 37 37 37 37 37 37 37 38 41 45 48 49 49 49 48 47 48 49 50 52 53 53 53 53 53 53 53 53 53 53 53 53 53 52 52 51 50 50 49 49 48 47 48 48 48 46 44 43 42 41 40 39 38 37 36 35 34 34 34 34
43 42 41 39 37 34 32 30 29 28 28 28 29 29 30 30 30 30 30 29 29 30 31 32 33 34 34 33 33 32 32 33 33 35 38 41 43 45 46 47 47 46 47 48 49 50 51 51 51 51 51 51 52 52 52 52 52 52 52 51 51 50 49 49 48 48 47 47 48 48 46 44 43 43 41 40 39 38 37 37 36 35 34 34 34 35
40 39 37 35 33 30 29 27 26 26 26 26 26 26 27 27 27 27 27 27 27 28 29 30 31 31 31 31 32 33 34 35 36 38 39 39 40 41 43 44 45 45 46 47 48 49 49 49 48 49 49 49 50 50 50 51 51 51 51 50 49 49 48 48 48 48 47 48 48 46 45 44 43 42 41 40 39 38 37 36 35 35 34 34 34 35
Wind_Direction
283 283 283 283 283 283 282 282 282 282 281 280 280 279 279 278 278 277 276 276 275 274 274 273 272 272 271 270 270 269 268 267 266 266 265 265 265 265 265 265 266 266 267 267 268 268 268 268 267 265 263 261 261 263 265 267 267 267 267 267 266 266 265 265 265 265 266 266 267 268 268 270 271 274 276 279 283 286 290 292 295 297 299 301 303 304
284 283 284 284 284 283 283 283 283 282 282 281 281 280 280 280 279 278 278 277 276 275 274 274 273 272 272 271 271 270 269 268 268 267 266 266 266 266 266 266 266 267 267 267 267 267 267 267 266 265 263 261 260 262 263 264 265 265 265 265 265 264 264 264 265 265 265 266 266 267 268 269 271 273 275 278 282 285 289 291 293 296 298 300 302 303
284 284 284 283 283 283 283 283 283 282 282 281 281 281 280 280 279 279 278 278 277 276 275 274 274 273 272 272 271 271 270 269 269 268 268 267 267 267 267 266 267 267 267 267 267 267 266 266 265 264 263 261 261 261 262 262 262 262 263 263 263 263 263 263 264 264 265 265 265 266 267 268 270 272 274 277 281 284 287 290 292 294 296 299 301 303
284 284 284 283 283 283 283 283 282 282 281 281 281 280 280 280 279 278 278 277 277 276 276 275 274 274 273 272 272 271 270 270 269 269 268 268 267 267 267 267 267 267 267 267 266 266 266 265 265 264 263 261 260 260 260 260 260 260 260 261 261 262 262 263 263 263 264 264 264 265 266 267 269 271 273 276 280 283 286 288 291 293 295 297 300 302
284 284 283 283 283 283 282 282 282 282 281 281 280 280 280 279 278 278 277 276 276 275 275 274 274 274 273 273 272 271 271 270 270 269 269 268 268 267 267 267 266 266 266 266 266 265 265 265 264 264 263 261 260 259 258 258 258 258 259 259 260 260 261 262 262 263 263 263 264 264 265 266 268 270 272 275 278 281 284 287 289 291 294 296 299 301
283 283 283 282 282 282 282 282 281 281 281 281 280 280 279 279 278 278 277 276 275 274 274 273 273 273 272 272 272 271 271 270 270 269 269 268 268 267 267 266 266 266 265 265 265 264 264 264 263 263 262 261 259 258 257 257 257 257 257 258 258 259 260 261 261 262 262 262 263 263 264 265 267 269 271 274 277 279 282 285 287 290 292 295 298 300
282 282 282 282 281 281 281 281 281 281 281 280 280 280 279 279 278 278 277 276 275 274 273 273 272 272 271 271 271 270 270 270 269 269 269 268 268 267 267 266 266 265 265 264 264 263 263 262 262 262 261 260 259 257 256 256 256 256 256 257 257 258 259 260 260 261 261 261 262 263 263 265 266 268 270 272 275 278 280 283 285 288 291 294 297 299
282 281 281 281 281 280 280 280 280 280 280 280 280 279 279 279 278 278 277 277 276 275 274 273 272 271 270 270 269 269 269 269 268 268 268 267 267 267 266 266 265 265 264 264 263 262 262 261 261 261 260 259 258 257 256 256 255 256 256 256 257 258 259 259 260 260 261 261 261 262 263 264 266 267 269 271 273 276 278 281 283 286 289 292 295 298
281 281 280 280 280 280 280 279 279 279 279 279 279 279 278 278 278 277 277 277 276 275 275 274 272 271 270 269 269 268 268 267 267 267 266 266 266 266 266 265 265 264 264 263 262 262 261 260 260 260 259 259 258 257 256 256 255 256 256 257 257 258 258 259 260 260 260 261 261 262 262 264 265 266 268 270 272 274 276 279 281 284 288 291 294 297
281 280 280 280 279 279 279 279 278 278 278 278 278 278 278 278 277 277 276 276 276 275 275 274 273 272 271 270 269 268 267 266 266 266 265 265 265 265 264 264 264 264 263 263 262 261 260 260 259 259 258 258 258 257 256 256 256 256 256 257 257 258 259 259 259 260 260 260 261 261 262 263 264 265 267 268 270 272 274 277 280 283 286 289 292 295
280 280 279 279 279 278 278 278 278 277 277 277 277 277 277 277 277 276 276 275 275 274 274 273 273 272 271 270 269 268 267 266 265 265 264 264 264 263 263 263 263 263 263 262 262 261 260 260 259 259 258 258 258 257 257 257 256 256 257 257 258 258 259 259 260 260 260 261 261 261 262 262 263 264 265 267 268 270 273 275 278 281 284 287 290 293
279 279 279 278 278 278 277 277 277 277 276 276 276 276 276 276 276 275 275 274 274 274 273 273 272 272 271 271 270 269 268 267 266 265 264 263 263 262 262 262 262 262 261 261 261 261 260 260 259 259 259 258 258 258 258 258 257 257 257 258 258 258 259 259 260 260 260 260 261 261 261 262 262 263 264 265 267 269 271 273 276 279 282 285 288 291
279 279 278 278 278 277 277 277 276 276 275 275 275 275 275 275 274 274 274 273 273 273 272 272 272 271 271 270 270 269 268 267 266 265 264 263 262 262 261 261 261 260 260 260 260 260 260 260 259 259 259 259 259 259 259 258 258 258 258 258 258 259 259 260 260 260 260 260 261 261 261 262 262 262 263 264 266 267 269 271 274 277 280 283 286 289
279 279 279 278 278 277 277 277 276 276 275 275 275 274 274 274 273 273 273 272 272 272 271 271 271 270 270 269 269 269 268 267 266 265 264 263 262 262 261 261 260 259 259 259 259 259 259 259 259 259 259 259 259 259 259 259 259 259 259 259 259 259 259 260 260 260 260 261 261 261 261 261 261 262 262 263 264 266 268 270 272 275 278 281 284 287
279 279 278 278 278 277 277 276 276 275 275 274 274 274 273 273 273 272 272 272 271 271 270 270 269 269 269 269 268 268 268 267 266 266 265 264 263 262 261 260 260 259 258 258 258 258 258 258 258 259 259 259 260 260 260 260 260 260 259 259 259 259 260 260 260 260 260 261 261 261 261 261 261 261 262 262 263 265 266 268 271 273 276 279 282 285
279 279 278 278 277 277 276 276 276 275 275 274 273 273 273 272 272 272 271 271 270 270 269 269 268 268 268 268 268 267 267 267 266 265 265 264 263 262 261 260 259 259 258 257 257 257 257 257 257 258 258 259 259 259 259 260 260 260 260 260 260 260 260 260 260 260 260 260 261 260 260 260 260 261 261 261 262 264 265 267 269 272 275 277 280 283
279 279 278 278 277 277 276 276 275 275 274 274 273 272 272 272 271 271 271 270 270 269 269 268 268 267 267 267 266 266 266 266 265 265 264 263 263 262 261 260 259 259 258 257 257 257 256 256 257 257 257 258 258 259 259 259 259 259 259 259 259 259 259 260 260 260 260 260 260 260 260 260 260 260 260 260 261 262 264 265 267 270 272 275 278 280
280 280 279 279 278 277 277 276 275 275 274 273 273 272 271 271 270 270 270 270 269 269 268 268 267 267 266 266 265 265 265 265 264 264 263 262 262 261 261 260 259 259 258 257 257 257 256 256 256 256 257 257 258 258 258 258 259 259 259 259 259 259 259 259 259 260 260 260 260 259 259 259 259 259 259 259 260 261 262 263 265 267 270 272 275 277
281 280 280 279 279 278 277 277 276 275 275 274 273 272 271 270 270 269 269 269 269 268 268 267 267 266 266 265 265 264 263 263 263 263 262 261 261 260 260 260 259 259 258 257 257 257 256 256 256 256 256 256 257 257 257 258 258 258 258 258 258 258 258 258 259 259 259 259 259 259 258 258 258 258 258 258 258 259 260 262 263 265 267 270 272 275
281 281 280 280 279 279 278 277 277 276 275 274 273 273 272 271 270 269 268 268 267 267 267 266 266 266 265 265 264 263 262 261 261 261 261 260 260 260 259 259 259 259 258 257 257 257 256 256 256 256 256 256 256 256 257 257 257 257 258 258 258 258 258 258 258 258 258 258 258 258 257 257 257 257 257 257 257 258 259 260 261 263 265 267 270 272
281 281 280 280 279 279 278 278 277 276 275 275 274 273 272 271 270 269 268 267 267 266 266 265 265 265 264 264 263 262 261 260 260 260 260 260 259 259 259 259 258 258 258 257 257 257 256 256 256 255 255 255 256 256 256 256 256 256 257 257 257 257 257 257 257 257 257 257 257 257 256 256 256 256 256 256 256 257 257 259 260 262 264 266 268 270
281 281 280 279 279 278 278 277 277 276 275 274 274 273 272 271 271 270 269 267 266 265 265 264 264 264 263 262 262 261 261 260 259 259 259 259 258 258 258 258 258 258 258 257 257 256 256 255 255 255 255 255 255 255 255 255 255 255 256 256 256 256 256 256 256 256 256 256 256 255 255 255 255 255 255 255 255 256 256 257 259 260 262 264 266 268
282 281 280 280 279 278 278 277 277 276 275 274 274 273 272 271 271 270 269 268 267 266 264 264 263 262 261 261 260 260 260 260 259 259 258 258 258 258 257 257 257 257 257 256 256 256 255 255 254 254 254 254 254 254 254 254 254 254 254 255 255 255 255 255 255 255 255 255 255 254 254 254 254 254 254 254 254 254 255 256 257 259 260 262 264 266
282 281 281 280 279 278 278 277 277 276 275 274 274 273 272 271 270 270 269 268 267 266 265 264 262 261 260 259 259 259 259 259 258 258 258 257 257 257 256 256 256 256 256 255 255 255 254 254 254 253 253 253 253 253 253 253 253 253 253 253 254 254 254 254 254 254 254 254 253 253 253 253 253 253 253 253 253 253 254 255 256 257 259 260 262 264
282 282 281 280 279 278 278 277 276 276 275 274 273 273 272 271 270 269 268 267 266 265 265 263 262 261 259 259 258 258 258 258 257 257 256 256 256 255 255 254 254 254 254 254 254 253 253 253 253 252 252 252 252 252 252 252 252 252 252 252 252 253 253 253 253 253 253 252 252 252 252 252 252 252 252 252 252 252 253 254 255 256 257 259 260 262
282 282 281 280 279 278 277 276 276 275 274 273 273 272 271 270 269 268 267 267 266 265 264 263 262 261 260 258 257 256 256 256 255 255 255 255 254 254 253 253 252 252 252 252 252 252 252 252 252 251 251 251 251 251 251 251 251 251 251 251 251 251 251 251 252 252 251 251 251 251 251 251 251 251 250 250 251 251 252 252 253 254 256 257 259 260
282 281 280 279 279 278 277 276 275 274 273 272 272 271 270 269 268 267 266 266 265 264 263 262 261 260 259 257 256 255 254 254 253 253 253 252 252 252 252 251 251 250 250 250 250 250 250 250 250 250 250 250 250 250 250 249 249 249 250 250 250 250 250 250 250 250 250 250 250 250 250 250 250 250 249 249 249 250 250 251 252 253 254 255 257 258
280 280 279 279 278 277 276 276 275 274 273 272 271 270 269 268 267 266 265 265 264 262 261 261 260 259 257 256 255 253 252 251 251 251 251 250 250 250 250 249 249 248 248 249 249 249 249 249 249 249 249 249 249 249 248 248 248 248 248 248 249 249 249 249 249 249 249 249 249 249 249 249 249 249 248 248 248 249 249 250 250 251 252 254 255 256
279 279 278 278 277 277 276 276 275 274 273 272 271 270 269 268 266 265 265 264 262 261 260 259 258 257 256 255 254 252 251 249 249 249 248 248 248 248 248 247 247 247 247 246 247 247 247 247 247 247 247 247 247 247 247 247 247 247 247 247 247 247 247 248 248 248 248 248 248 248 248 248 248 247 247 247 247 247 248 248 249 250 251 252 253 254
279 279 278 278 277 277 276 275 275 274 273 272 271 270 268 267 266 265 264 263 261 260 259 258 257 255 254 253 252 251 249 248 247 247 246 246 246 246 246 245 245 245 245 244 244 244 245 245 245 245 246 246 246 246 246 246 246 246 246 246 246 246 246 246 246 247 247 247 247 247 247 246 246 246 246 246 246 246 247 247 248 248 249 250 251 253
280 279 278 278 277 276 276 275 274 273 272 271 270 269 268 267 266 265 263 262 260 259 257 256 255 254 252 251 250 249 248 247 246 245 244 244 244 245 244 243 243 243 243 242 242 242 243 243 243 243 243 244 244 244 244 244 244 244 244 244 244 245 245 245 245 245 245 245 245 245 245 245 245 245 245 245 245 245 245 246 246 247 248 249 250 251
280 280 279 278 277 276 276 275 274 273 272 271 270 269 268 267 265 264 263 261 260 258 256 255 253 252 251 250 249 248 248 247 246 244 242 242 243 243 242 241 241 241 241 241 241 241 241 241 241 241 241 242 242 242 242 242 242 243 243 243 243 243 243 244 244 244 244 244 244 244 244 244 244 244 244 244 244 244 244 244 245 246 247 247 249 250
281 280 279 278 277 276 275 275 274 273 272 271 269 268 267 266 265 263 262 261 259 257 255 254 252 251 249 248 247 247 247 246 245 243 241 241 241 241 241 240 239 239 239 239 239 239 239 239 239 239 239 239 240 240 240 241 241 241 241 241 241 241 242 242 242 242 242 242 242 242 242 242 242 242 242 242 243 243 243 243 244 244 245 246 247 249
282 281 280 279 278 277 276 275 274 273 272 270 269 268 266 265 264 262 261 259 258 256 255 253 251 250 248 247 246 246 246 245 244 242 240 240 240 240 240 239 238 237 237 237 237 237 237 237 237 237 237 237 238 238 238 239 239 239 239 239 239 239 240 240 240 240 241 241 241 241 241 241 241 241 241 241 241 241 242 242 242 243 244 245 246 247
283 282 281 279 278 277 276 275 274 272 271 270 269 267 266 264 263 261 260 258 256 255 253 252 250 249 247 246 245 245 245 244 243 241 240 240 240 239 239 238 237 236 236 236 236 236 236 235 235 235 235 235 236 236 236 236 237 237 237 237 237 238 238 238 238 238 239 239 239 239 239 239 239 239 240 240 240 240 240 241 241 242 243 244 245 246
284 283 282 280 279 278 276 275 274 272 271 270 268 267 265 263 261 260 258 256 255 253 252 250 249 248 247 246 245 244 244 243 242 241 240 239 239 239 239 238 236 236 235 235 235 235 235 234 234 234 234 234 234 234 234 235 235 235 235 236 236 236 236 236 236 237 237 237 237 237 237 237 238 238 238 238 238 238 239 239 240 241 242 243 244 245
285 283 282 281 280 279 277 276 274 272 271 269 267 266 264 262 260 258 257 255 253 251 250 249 248 247 246 245 244 244 243 242 241 240 240 239 239 239 239 238 236 235 234 234 234 234 234 233 233 233 232 232 233 233 233 233 233 233 234 234 234 234 234 234 235 235 235 235 235 235 236 236 236 236 237 237 237 237 238 238 239 240 241 242 243 243
286 285 283 282 280 279 277 276 274 272 270 269 266 264 262 260 258 257 255 253 252 250 248 247 246 245 244 244 243 242 242 241 241 240 240 240 240 239 238 237 236 235 234 233 233 233 233 232 232 232 231 231 231 231 231 231 231 232 232 232 232 233 233 233 233 233 233 233 233 234 234 234 235 235 235 236 236 236 236 237 238 239 239 240 241 242
288 286 285 283 281 279 278 276 274 272 270 268 266 263 261 259 257 256 254 252 251 249 247 245 244 243 242 242 241 241 240 240 240 240 240 240 240 239 238 237 236 235 234 233 233 233 232 232 231 231 231 230 230 230 230 230 230 230 230 231 231 231 231 231 231 231 231 232 232 232 232 233 234 234 234 235 235 235 235 235 236 237 238 238 239 240
290 288 287 285 283 281 278 276 274 272 270 267 265 263 260 258 257 255 253 252 250 248 246 244 243 241 241 240 239 239 238 238 238 237 237 238 238 238 237 236 236 235 234 233 232 232 232 231 231 230 230 229 229 229 229 228 228 228 229 229 229 229 229 229 230 230 230 230 230 230 231 231 232 233 233 233 233 233 233 234 234 235 236 236 237 238
293 292 290 288 285 283 280 278 275 272 270 267 264 262 260 258 256 255 253 251 250 248 246 244 242 240 239 238 237 237 236 236 235 234 234 235 236 237 236 236 235 235 234 233 232 231 231 231 230 230 229 229 228 228 227 227 227 227 227 227 228 228 228 228 228 228 228 228 229 229 229 230 230 231 231 231 231 231 232 232 232 233 234 235 236 237
296 295 293 291 288 285 283 280 277 274 270 267 264 261 259 257 256 254 253 251 250 248 246 244 241 240 238 236 235 235 234 234 233 232 233 234 235 236 236 236 236 235 233 232 231 231 230 230 229 229 228 228 227 227 226 226 226 226 226 226 226 226 226 227 227 227 226 226 227 227 227 228 229 229 229 229 229 229 230 230 231 231 232 233 234 235
299 298 296 294 291 288 284 281 278 274 271 267 264 261 258 256 255 253 252 251 250 248 246 243 241 239 237 235 234 233 232 232 231 232 233 234 235 236 236 236 235 234 233 231 230 229 229 229 228 228 228 227 226 226 226 225 225 225 224 225 224 224 224 225 225 225 225 225 225 225 225 226 227 228 227 227 227 227 228 228 229 230 231 232 233 234
303 301 299 296 293 290 286 282 279 275 271 268 264 260 258 255 254 253 252 251 249 248 245 243 240 238 236 234 233 232 231 230 230 231 232 233 234 234 234 234 234 233 231 230 228 228 228 227 227 227 226 226 225 225 225 225 224 224 223 223 223 223 223 223 223 223 223 223 223 223 223 225 226 226 225 225 225 226 226 227 228 229 230 230 231 232
305 304 302 299 296 292 288 284 279 275 272 268 264 260 257 255 253 252 251 250 248 247 244 242 239 236 235 233 231 230 229 229 229 230 230 231 232 232 232 232 232 231 229 228 227 226 225 225 225 225 225 224 224 224 224 223 223 223 223 222 222 222 222 222 221 221 221 221 220 220 222 223 224 224 224 224 224 224 225 225 226 227 228 229 230 231
307 306 304 302 298 294 290 285 280 276 271 268 264 260 257 254 253 251 250 249 247 245 243 240 237 235 233 231 230 229 228 228 227 228 228 228 229 229 229 229 229 228 226 225 224 224 223 223 223 223 223 223 223 223 222 222 222 222 221 221 221 221 220 220 219 219 219 217 217 217 220 222 223 223 222 222 222 222 223 224 225 226 227 227 228 230
307 306 305 303 300 296 291 286 281 276 271 267 263 260 257 254 252 251 249 247 245 243 240 237 235 232 231 229 228 227 226 225 225 225 225 226 226 226 225 225 224 224 223 222 221 221 221 221 221 221 221 221 221 221 221 220 220 220 220 220 220 219 219 218 217 217 216 214 214 216 219 221 221 221 221 220 220 221 221 222 223 224 225 226 227 228
305 306 305 303 300 297 292 287 281 276 271 266 262 259 256 253 251 249 248 246 243 240 237 233 230 228 226 225 223 222 221 221 220 221 222 223 224 223 222 222 221 220 220 219 219 219 219 219 219 219 219 219 219 219 218 218 218 218 218 218 218 218 217 217 216 215 214 212 213 215 218 220 220 219 219 219 219 219 220 221 222 223 224 225 226 227
304 304 304 302 299 295 291 286 281 275 270 266 261 258 254 252 249 247 245 242 239 235 231 228 225 223 220 218 216 214 212 211 211 214 218 221 221 221 220 219 218 217 217 217 217 218 218 218 218 217 217 217 217 216 216 216 216 216 216 216 216 216 215 214 213 212 210 210 212 215 218 218 218 218 217 217 217 217 218 219 221 222 223 224 225 226
303 303 303 301 297 294 289 285 280 275 270 265 260 256 253 250 247 244 240 237 233 229 225 222 219 216 212 209 204 199 195 195 198 205 213 218 219 217 216 215 214 213 212 212 214 216 216 216 216 215 215 215 215 215 214 214 214 214 214 214 214 213 212 212 210 209 207 208 212 215 216 216 216 216 216 215 215 216 217 218 220 221 223 223 224 225
304 304 302 300 297 293 288 283 278 273 268 263 259 254 250 246 242 238 234 229 225 221 217 214 211 207 201 194 187 183 182 186 192 200 209 215 216 214 212 210 209 208 207 208 211 212 213 213 213 212 212 213 213 213 213 212 212 212 212 212 211 210 209 209 207 206 205 208 211 214 215 215 215 215 214 214 214 215 216 217 219 220 222 222 223 224
Height
5654 5654 5653 5652 5652 5651 5651 5650 5649 5649 5648 5647 5647 5647 5647 5647 5648 5648 5648 5648 5648 5648 5647 5647 5648 5648 5648 5648 5648 5649 5649 5649 5649 5649 5649 5649 5650 5650 5650 5650 5651 5651 5651 5651 5652 5652 5653 5653 5653 5654 5654 5654 5654 5655 5655 5655 5656 5656 5657 5657 5657 5658 5658 5658 5658 5659 5659 5659 5660 5660 5660 5660 5660 5659 5659 5659 5659 5658 5658 5657 5657 5656 5655 5654 5654 5653
5649 5649 5649 5648 5647 5646 5646 5645 5645 5644 5643 5643 5643 5643 5643 5643 5643 5644 5644 5644 5644 5643 5643 5643 5643 5643 5643 5643 5644 5644 5644 5644 5644 5645 5645 5645 5646 5646 5646 5646 5646 5647 5647 5647 5648 5648 5648 5649 5649 5649 5650 5650 5650 5651 5651 5652 5653 5653 5654 5654 5654 5654 5654 5655 5655 5656 5656 5656 5657 5657 5657 5657 5657 5657 5656 5656 5656 5655 5655 5654 5654 5653 5653 5652 5651 5650
5645 5644 5644 5644 5643 5642 5642 5641 5640 5639 5638 5638 5638 5638 5638 5638 5639 5639 5639 5639 5639 5639 5639 5639 5639 5639 5639 5639 5639 5639 5640 5640 5640 5640 5641 5641 5641 5642 5642 5642 5642 5643 5643 5643 5644 5644 5644 5644 5645 5645 5645 5646 5647 5647 5647 5648 5649 5650 5650 5650 5651 5651 5651 5652 5652 5652 5653 5653 5654 5654 5654 5654 5654 5654 5653 5653 5653 5653 5652 5652 5651 5651 5650 5650 5649 5648
5640 5639 5639 5639 5639 5638 5637 5636 5635 5634 5633 5633 5633 5633 5633 5634 5634 5634 5634 5634 5634 5634 5634 5635 5635 5635 5635 5635 5635 5635 5636 5636 5636 5636 5637 5637 5637 5638 5638 5638 5638 5639 5639 5639 5639 5639 5640 5640 5640 5641 5641 5642 5643 5643 5644 5644 5645 5646 5647 5647 5647 5648 5648 5648 5649 5649 5649 5650 5650 5651 5651 5651 5651 5650 5650 5650 5650 5649 5649 5649 5649 5648 5648 5647 5646 5646
5635 5634 5634 5634 5634 5633 5633 5632 5630 5629 5629 5628 5628 5628 5628 5628 5629 5629 5629 5629 5630 5630 5630 5630 5630 5630 5630 5631 5631 5631 5631 5632 5632 5632 5633 5633 5633 5633 5634 5634 5634 5634 5634 5635 5635 5635 5635 5636 5636 5637 5637 5638 5639 5639 5640 5641 5641 5642 5643 5643 5644 5644 5644 5645 5645 5646 5646 5647 5647 5647 5648 5648 5648 5647 5647 5647 5647 5647 5647 5646 5646 5645 5645 5644 5644 5643
5631 5630 5629 5629 5629 5628 5628 5627 5626 5625 5624 5623 5623 5623 5623 5623 5623 5623 5624 5624 5624 5625 5625 5625 5625 5626 5626 5626 5626 5627 5627 5627 5628 5628 5628 5629 5629 5629 5629 5629 5630 5630 5630 5631 5631 5631 5631 5632 5632 5633 5634 5634 5634 5635 5636 5637 5638 5638 5639 5639 5640 5641 5641 5641 5642 5642 5643 5643 5644 5644 5644 5644 5644 5644 5644 5644 5644 5644 5644 5644 5643 5643 5642 5642 5641 5640
5626 5625 5624 5624 5623 5623 5623 5623 5622 5621 5619 5619 5618 5618 5618 5618 5618 5618 5618 5618 5619 5619 5619 5620 5620 5621 5621 5621 5622 5622 5622 5623 5623 5624 5624 5624 5624 5625 5625 5625 5626 5626 5626 5627 5627 5627 5627 5628 5628 5629 5629 5630 5631 5632 5632 5633 5634 5634 5635 5636 5636 5637 5637 5638 5638 5639 5639 5640 5640 5641 5641 5641 5641 5641 5641 5641 5641 5641 5641 5641 5640 5640 5639 5639 5638 5638
5619 5620 5619 5619 5618 5618 5618 5618 5617 5616 5615 5614 5613 5613 5613 5613 5613 5613 5613 5613 5613 5614 5614 5614 5615 5615 5616 5616 5616 5617 5617 5618 5618 5619 5619 5620 5620 5620 5621 5621 5621 5622 5622 5623 5623 5623 5624 5624 5624 5625 5626 5626 5627 5628 5629 5629 5630 5631 5631 5632 5633 5633 5634 5634 5634 5635 5636 5636 5637 5637 5638 5638 5638 5638 5638 5638 5638 5638 5638 5638 5638 5637 5637 5636 5636 5635
5613 5613 5614 5613 5613 5612 5612 5613 5613 5612 5610 5609 5608 5608 5608 5608 5608 5608 5608 5608 5608 5608 5608 5609 5609 5609 5610 5611 5611 5611 5612 5612 5613 5614 5614 5615 5616 5616 5617 5617 5617 5618 5618 5619 5619 5619 5619 5620 5620 5621 5622 5623 5623 5624 5625 5626 5626 5627 5628 5628 5629 5629 5630 5630 5631 5631 5632 5633 5633 5634 5634 5635 5635 5635 5635 5635 5635 5635 5635 5635 5635 5634 5634 5634 5633 5632
5607 5607 5607 5608 5608 5607 5606 5606 5607 5607 5605 5603 5603 5603 5603 5603 5602 5603 5603 5603 5603 5603 5603 5603 5603 5604 5604 5605 5605 5606 5606 5607 5608 5609 5609 5610 5611 5611 5612 5613 5613 5614 5614 5615 5615 5615 5616 5616 5617 5617 5618 5619 5619 5620 5621 5622 5623 5623 5624 5624 5625 5625 5626 5626 5627 5628 5628 5629 5630 5630 5631 5631 5632 5632 5632 5632 5632 5632 5632 5632 5632 5631 5631 5631 5630 5630
5601 5601 5601 5601 5602 5602 5601 5601 5601 5601 5600 5599 5597 5597 5598 5597 5597 5596 5596 5597 5597 5598 5597 5597 5597 5598 5598 5599 5599 5600 5601 5601 5602 5603 5604 5605 5606 5607 5607 5608 5609 5609 5610 5610 5611 5611 5612 5612 5613 5613 5614 5615 5615 5616 5617 5618 5619 5619 5620 5620 5621 5622 5622 5623 5623 5624 5624 5625 5626 5627 5627 5628 5628 5629 5629 5629 5629 5629 5629 5629 5629 5629 5628 5628 5628 5627
5594 5594 5594 5594 5595 5595 5595 5595 5595 5595 5594 5593 5592 5592 5592 5592 5592 5590 5589 5590 5592 5592 5592 5591 5592 5592 5593 5593 5594 5594 5595 5595 5596 5597 5599 5599 5600 5601 5602 5603 5604 5604 5605 5606 5607 5607 5608 5608 5608 5609 5610 5610 5611 5612 5613 5613 5614 5615 5616 5616 5617 5618 5618 5619 5619 5620 5620 5621 5622 5623 5624 5624 5625 5625 5625 5625 5626 5626 5626 5626 5626 5625 5625 5625 5625 5625
5587 5587 5587 5588 5588 5589 5589 5589 5589 5589 5589 5588 5586 5586 5586 5587 5586 5584 5584 5584 5586 5587 5586 5586 5586 5586 5587 5588 5588 5588 5589 5589 5590 5591 5593 5594 5594 5596 5596 5597 5598 5599 5600 5601 5602 5602 5603 5604 5604 5604 5605 5606 5607 5608 5608 5609 5610 5610 5611 5612 5613 5614 5614 5614 5615 5616 5617 5617 5618 5619 5620 5620 5621 5622 5622 5622 5622 5622 5623 5623 5623 5622 5622 5622 5622 5622
5580 5580 5580 5580 5581 5582 5582 5582 5582 5581 5581 5581 5581 5581 5580 5580 5579 5579 5578 5578 5579 5581 5581 5580 5579 5580 5581 5582 5582 5582 5583 5583 5584 5585 5586 5588 5589 5590 5591 5591 5592 5593 5594 5595 5596 5597 5598 5599 5599 5600 5600 5601 5602 5603 5604 5604 5605 5606 5607 5608 5609 5609 5610 5610 5611 5612 5613 5614 5614 5615 5616 5617 5617 5618 5618 5619 5619 5619 5619 5619 5619 5619 5619 5619 5619 5619
5572 5573 5572 5573 5574 5574 5575 5574 5574 5574 5574 5574 5575 5574 5574 5573 5572 5572 5572 5572 5573 5574 5574 5574 5574 5574 5575 5576 5576 5577 5577 5577 5578 5579 5580 5581 5583 5584 5585 5585 5586 5587 5589 5589 5590 5591 5593 5594 5594 5594 5596 5597 5597 5598 5599 5600 5601 5601 5602 5603 5604 5605 5606 5607 5607 5608 5609 5609 5610 5611 5612 5613 5614 5614 5615 5615 5615 5616 5616 5616 5616 5616 5616 5616 5616 5616
5564 5564 5564 5565 5566 5567 5567 5567 5567 5566 5566 5567 5568 5567 5567 5565 5565 5565 5565 5565 5565 5566 5567 5567 5567 5568 5569 5570 5571 5571 5570 5571 5572 5573 5574 5575 5577 5578 5579 5579 5579 5581 5583 5584 5584 5586 5587 5588 5589 5589 5590 5591 5592 5593 5594 5595 5596 5597 5598 5599 5600 5601 5602 5603 5603 5604 5605 5606 5607 5608 5608 5609 5610 5610 5611 5612 5612 5612 5612 5613 5613 5613 5613 5613 5613 5614
5556 5556 5556 5557 5558 5558 5559 5559 5559 5558 5559 5559 5559 5559 5559 5559 5558 5558 5558 5558 5558 5559 5559 5559 5560 5562 5563 5564 5565 5565 5565 5564 5565 5566 5568 5569 5570 5571 5572 5572 5573 5574 5576 5578 5579 5580 5581 5582 5583 5584 5585 5586 5587 5588 5589 5590 5591 5592 5593 5594 5595 5596 5598 5599 5599 5600 5601 5602 5603 5604 5604 5605 5606 5607 5607 5608 5609 5609 5609 5609 5609 5610 5610 5610 5610 5611
5547 5548 5548 5548 5548 5549 5550 5550 5550 5550 5550 5550 5550 5551 5551 5551 5551 5551 5550 5550 5550 5551 5551 5552 5553 5554 5556 5558 5559 5559 5559 5559 5558 5559 5561 5562 5564 5565 5566 5566 5566 5568 5570 5572 5573 5574 5575 5576 5577 5579 5580 5580 5581 5582 5584 5584 5586 5587 5588 5589 5590 5592 5593 5594 5595 5596 5597 5598 5599 5600 5601 5601 5602 5603 5604 5604 5605 5605 5606 5606 5607 5607 5607 5607 5608 5608
5537 5538 5539 5539 5538 5539 5540 5541 5541 5541 5541 5541 5541 5541 5543 5543 5543 5543 5543 5543 5543 5543 5543 5544 5545 5547 5549 5550 5551 5552 5553 5552 5551 5550 5553 5555 5557 5559 5560 5560 5560 5561 5564 5565 5567 5568 5569 5570 5571 5573 5574 5575 5576 5577 5578 5579 5580 5582 5583 5584 5585 5587 5588 5589 5591 5592 5593 5594 5594 5595 5597 5598 5598 5599 5600 5601 5601 5602 5603 5603 5603 5604 5604 5604 5605 5605
5528 5528 5529 5529 5529 5529 5529 5530 5531 5532 5531 5531 5530 5531 5532 5533 5534 5535 5535 5535 5535 5535 5535 5536 5537 5539 5541 5543 5543 5544 5545 5545 5544 5543 5545 5547 5550 5552 5553 5554 5554 5555 5557 5559 5561 5562 5564 5564 5565 5567 5568 5569 5570 5571 5573 5574 5575 5576 5578 5579 5580 5582 5583 5585 5586 5587 5588 5589 5590 5591 5592 5593 5594 5595 5596 5597 5598 5599 5599 5599 5600 5600 5601 5601 5602 5602
5517 5518 5519 5519 5519 5519 5518 5519 5521 5521 5521 5520 5519 5519 5520 5521 5523 5524 5525 5526 5526 5526 5526 5527 5529 5530 5533 5534 5534 5534 5536 5538 5537 5536 5537 5540 5542 5544 5547 5548 5548 5549 5551 5553 5555 5556 5557 5558 5559 5561 5562 5563 5564 5566 5567 5568 5569 5571 5572 5574 5575 5577 5578 5580 5581 5583 5584 5585 5586 5587 5588 5589 5590 5591 5592 5593 5594 5594 5595 5596 5597 5597 5598 5598 5599 5599
5506 5507 5508 5508 5508 5508 5508 5508 5509 5509 5509 5508 5508 5508 5508 5509 5511 5513 5514 5516 5517 5517 5517 5518 5519 5522 5524 5525 5524 5524 5526 5529 5530 5529 5530 5533 5534 5537 5540 5542 5542 5542 5544 5547 5549 5550 5551 5552 5553 5554 5556 5557 5559 5560 5561 5563 5564 5565 5567 5568 5570 5571 5573 5575 5577 5578 5579 5580 5582 5583 5584 5585 5586 5587 5588 5589 5590 5591 5592 5592 5593 5594 5594 5595 5595 5596
5494 5495 5495 5495 5496 5496 5496 5496 5496 5497 5497 5496 5496 5496 5496 5497 5499 5501 5502 5504 5506 5507 5507 5509 5511 5513 5514 5514 5514 5515 5518 5521 5522 5523 5523 5525 5527 5529 5534 5535 5535 5535 5537 5540 5542 5543 5544 5545 5546 5548 5550 5551 5553 5554 5556 5557 5559 5560 5561 5563 5564 5566 5568 5570 5572 5573 5575 5576 5577 5578 5579 5581 5582 5583 5584 5585 5586 5587 5588 5589 5589 5590 5591 5591 5592 5593
5479 5480 5481 5482 5483 5483 5483 5483 5483 5484 5484 5484 5484 5484 5484 5484 5486 5487 5489 5491 5494 5496 5498 5499 5501 5502 5503 5504 5505 5506 5509 5512 5514 5515 5515 5517 5519 5523 5526 5528 5529 5529 5530 5533 5535 5536 5537 5538 5540 5542 5544 5545 5546 5548 5550 5552 5553 5554 5556 5558 5559 5561 5563 5565 5567 5568 5570 5571 5573 5574 5575 5577 5578 5579 5580 5581 5582 5583 5584 5585 5586 5586 5587 5588 5589 5589
5463 5464 5466 5467 5468 5469 5469 5469 5469 5469 5470 5470 5470 5470 5470 5471 5472 5473 5474 5477 5479 5482 5484 5486 5488 5490 5492 5494 5496 5497 5499 5502 5504 5506 5507 5508 5511 5514 5518 5520 5521 5522 5523 5525 5528 5529 5530 5531 5533 5535 5537 5539 5540 5542 5544 5546 5547 5549 5551 5552 5554 5556 5558 5560 5562 5564 5565 5567 5568 5569 5571 5572 5574 5575 5576 5577 5578 5579 5580 5581 5582 5583 5584 5584 5585 5586
5449 5449 5449 5451 5452 5453 5454 5454 5455 5455 5455 5456 5456 5456 5457 5457 5457 5459 5460 5463 5465 5467 5469 5471 5474 5477 5481 5484 5486 5487 5489 5491 5494 5496 5497 5499 5502 5505 5509 5512 5514 5514 5515 5517 5519 5522 5523 5524 5526 5529 5531 5532 5534 5536 5538 5540 5542 5544 5545 5547 5549 5551 5553 5554 5557 5559 5560 5562 5564 5565 5566 5568 5569 5570 5572 5573 5574 5575 5576 5577 5578 5579 5580 5581 5582 5582
5435 5434 5434 5434 5435 5436 5437 5438 5439 5439 5440 5441 5442 5442 5442 5442 5443 5444 5446 5449 5451 5453 5456 5458 5460 5463 5468 5472 5475 5476 5478 5481 5484 5486 5487 5489 5492 5495 5499 5503 5506 5507 5507 5509 5511 5514 5516 5517 5519 5522 5524 5526 5528 5530 5532 5534 5536 5538 5539 5541 5544 5545 5547 5549 5552 5554 5555 5557 5559 5560 5562 5564 5565 5566 5568 5569 5570 5571 5572 5574 5574 5575 5576 5577 5578 5579
5424 5422 5421 5420 5419 5419 5420 5421 5422 5423 5424 5426 5427 5427 5427 5428 5429 5430 5433 5435 5437 5439 5442 5444 5446 5449 5454 5459 5461 5464 5467 5471 5473 5474 5476 5479 5482 5485 5489 5494 5498 5499 5499 5500 5503 5506 5508 5510 5512 5515 5518 5519 5521 5524 5525 5528 5530 5532 5534 5536 5538 5540 5542 5544 5546 5549 5550 5552 5554 5556 5557 5559 5560 5562 5563 5564 5566 5567 5569 5570 5571 5572 5573 5574 5574 5575
5413 5411 5409 5409 5407 5406 5406 5406 5407 5408 5409 5410 5411 5412 5412 5413 5415 5417 5419 5421 5424 5426 5429 5430 5432 5436 5441 5445 5448 5451 5456 5459 5462 5464 5465 5469 5471 5474 5478 5485 5489 5490 5490 5492 5495 5498 5500 5503 5505 5508 5511 5513 5515 5517 5519 5522 5524 5526 5529 5530 5533 5535 5537 5539 5541 5544 5546 5548 5549 5551 5553 5554 5556 5558 5559 5560 5562 5563 5564 5566 5567 5568 5569 5570 5571 5572
5402 5401 5399 5398 5397 5395 5394 5394 5394 5394 5395 5396 5397 5398 5398 5399 5401 5403 5406 5408 5410 5413 5415 5417 5419 5423 5428 5432 5435 5439 5442 5446 5450 5454 5457 5459 5461 5463 5468 5475 5479 5480 5481 5484 5487 5489 5492 5495 5498 5502 5504 5506 5508 5511 5513 5516 5518 5521 5523 5525 5528 5530 5532 5534 5537 5539 5541 5543 5544 5546 5548 5550 5552 5553 5555 5556 5558 5559 5561 5562 5563 5564 5565 5566 5567 5569
5390 5390 5389 5388 5386 5385 5384 5383 5383 5383 5383 5384 5385 5385 5386 5386 5388 5390 5393 5395 5398 5400 5403 5404 5407 5410 5414 5419 5422 5425 5427 5432 5439 5446 5449 5450 5450 5451 5456 5464 5469 5470 5471 5475 5479 5481 5483 5487 5491 5495 5497 5499 5501 5504 5507 5509 5512 5515 5517 5520 5523 5525 5527 5530 5532 5534 5536 5538 5540 5542 5544 5545 5547 5549 5550 5552 5554 5555 5557 5558 5559 5560 5562 5563 5564 5565
5379 5378 5378 5376 5375 5374 5374 5373 5372 5371 5372 5372 5373 5374 5374 5375 5376 5378 5380 5383 5385 5388 5390 5393 5395 5398 5401 5405 5409 5412 5414 5420 5429 5437 5440 5440 5439 5440 5445 5454 5458 5460 5462 5466 5469 5472 5475 5479 5483 5487 5489 5492 5494 5497 5500 5503 5506 5509 5511 5514 5517 5519 5522 5524 5527 5529 5531 5533 5535 5537 5539 5541 5542 5544 5546 5548 5549 5551 5553 5554 5555 5557 5558 5559 5560 5562
5368 5367 5366 5365 5364 5364 5364 5362 5361 5360 5360 5361 5362 5363 5364 5364 5365 5367 5369 5371 5374 5376 5379 5382 5384 5387 5389 5392 5396 5400 5404 5410 5418 5425 5430 5430 5429 5430 5435 5442 5447 5449 5452 5457 5460 5464 5467 5471 5475 5479 5482 5484 5487 5490 5494 5497 5500 5503 5505 5508 5511 5514 5516 5519 5522 5524 5526 5528 5530 5532 5534 5536 5538 5540 5542 5543 5545 5547 5549 5550 5551 5553 5554 5555 5557 5558
5356 5356 5355 5354 5353 5353 5352 5352 5351 5350 5350 5350 5351 5352 5353 5354 5355 5356 5358 5360 5363 5365 5368 5370 5373 5376 5379 5381 5384 5389 5394 5399 5406 5414 5419 5419 5419 5420 5424 5431 5436 5439 5443 5447 5451 5455 5459 5463 5467 5470 5474 5476 5480 5484 5487 5490 5494 5497 5499 5502 5505 5508 5510 5514 5516 5519 5521 5523 5525 5528 5529 5532 5534 5535 5537 5539 5541 5543 5544 5546 5547 5549 5550 5552 5553 5554
5344 5344 5343 5342 5342 5341 5341 5340 5340 5340 5339 5340 5340 5341 5342 5343 5344 5345 5347 5349 5352 5354 5356 5359 5362 5365 5369 5372 5375 5379 5384 5389 5396 5403 5408 5409 5409 5410 5414 5420 5425 5429 5434 5438 5442 5446 5450 5454 5459 5462 5465 5469 5473 5477 5480 5484 5487 5491 5494 5497 5499 5502 5505 5508 5511 5513 5515 5518 5520 5523 5525 5527 5529 5531 5533 5535 5537 5539 5540 5542 5544 5545 5547 5548 5549 5551
5333 5332 5332 5331 5330 5330 5329 5329 5329 5329 5329 5330 5330 5331 5331 5332 5333 5335 5337 5339 5341 5344 5346 5349 5352 5355 5359 5362 5366 5370 5374 5380 5387 5393 5397 5398 5399 5401 5405 5410 5415 5420 5425 5429 5433 5438 5442 5447 5451 5454 5458 5462 5465 5469 5473 5477 5481 5485 5488 5491 5494 5497 5499 5503 5505 5508 5511 5513 5515 5518 5520 5522 5524 5526 5528 5530 5532 5534 5536 5538 5539 5541 5543 5544 5546 5548
5323 5322 5321 5321 5320 5319 5319 5319 5319 5319 5319 5320 5320 5321 5321 5322 5323 5324 5326 5328 5331 5334 5336 5339 5342 5345 5349 5353 5357 5361 5366 5372 5378 5383 5386 5388 5390 5393 5397 5401 5405 5411 5417 5421 5425 5429 5434 5439 5443 5447 5451 5454 5458 5462 5467 5472 5476 5479 5482 5484 5488 5491 5494 5497 5500 5503 5506 5508 5511 5513 5516 5518 5520 5522 5524 5526 5528 5530 5532 5534 5536 5538 5539 5541 5542 5544
5314 5313 5312 5311 5311 5310 5309 5309 5309 5309 5310 5310 5311 5311 5311 5312 5313 5314 5316 5318 5321 5324 5327 5329 5333 5336 5340 5344 5349 5353 5358 5364 5370 5373 5377 5379 5382 5385 5389 5392 5397 5403 5409 5413 5417 5421 5427 5431 5436 5439 5444 5448 5452 5456 5461 5465 5469 5473 5475 5479 5482 5486 5489 5492 5495 5498 5501 5504 5506 5509 5511 5514 5515 5518 5519 5522 5524 5526 5528 5530 5532 5534 5536 5537 5539 5540
5307 5305 5304 5304 5303 5302 5301 5300 5300 5301 5301 5301 5302 5302 5302 5303 5304 5305 5307 5309 5311 5314 5318 5321 5324 5328 5331 5335 5340 5345 5350 5356 5362 5366 5371 5374 5376 5378 5380 5384 5389 5395 5401 5405 5410 5415 5419 5424 5428 5432 5437 5441 5446 5451 5455 5459 5463 5466 5470 5474 5478 5481 5484 5487 5490 5493 5496 5499 5502 5504 5507 5509 5511 5514 5516 5518 5520 5523 5524 5526 5528 5530 5532 5534 5535 5537
5300 5299 5298 5296 5295 5295 5294 5293 5293 5293 5293 5294 5294 5294 5294 5295 5296 5297 5299 5300 5303 5306 5309 5313 5316 5320 5324 5328 5332 5337 5342 5347 5353 5359 5365 5368 5368 5369 5372 5377 5383 5388 5393 5399 5404 5408 5412 5417 5421 5426 5431 5436 5440 5444 5449 5453 5457 5460 5464 5468 5472 5474 5478 5481 5485 5488 5491 5494 5497 5500 5503 5505 5507 5510 5512 5514 5517 5519 5521 5523 5524 5526 5528 5530 5532 5533
5294 5293 5291 5290 5289 5288 5287 5286 5286 5286 5286 5286 5287 5287 5287 5288 5289 5290 5291 5293 5296 5299 5302 5305 5309 5312 5316 5320 5325 5329 5334 5339 5345 5351 5356 5358 5360 5362 5366 5371 5377 5382 5387 5392 5397 5401 5405 5410 5415 5420 5425 5430 5434 5439 5443 5447 5451 5455 5459 5462 5465 5469 5473 5477 5480 5484 5486 5489 5492 5495 5498 5501 5504 5506 5508 5511 5513 5515 5517 5519 5521 5523 5524 5526 5528 5530
5290 5288 5287 5285 5284 5283 5281 5280 5280 5279 5279 5280 5280 5281 5281 5282 5283 5284 5285 5287 5289 5292 5295 5299 5302 5305 5309 5313 5317 5322 5327 5333 5337 5342 5347 5350 5353 5357 5361 5366 5371 5375 5380 5385 5390 5394 5399 5404 5409 5414 5419 5424 5429 5434 5438 5442 5446 5450 5454 5457 5461 5465 5470 5473 5476 5479 5482 5485 5488 5491 5495 5497 5499 5502 5504 5507 5509 5511 5513 5515 5517 5519 5521 5523 5524 5526
5286 5284 5283 5281 5279 5278 5276 5275 5274 5274 5274 5274 5274 5275 5276 5277 5277 5278 5280 5281 5283 5286 5289 5293 5296 5299 5302 5306 5310 5316 5321 5325 5330 5335 5339 5344 5348 5352 5357 5361 5365 5369 5375 5379 5384 5388 5393 5399 5404 5409 5414 5419 5424 5428 5432 5436 5441 5445 5449 5452 5456 5461 5465 5468 5470 5474 5478 5481 5484 5487 5491 5493 5495 5498 5500 5503 5505 5507 5509 5511 5513 5515 5518 5519 5521 5523
5282 5280 5279 5277 5275 5273 5272 5270 5269 5269 5269 5269 5269 5269 5270 5271 5272 5273 5274 5276 5278 5280 5284 5287 5290 5293 5296 5299 5304 5309 5314 5319 5324 5329 5333 5338 5343 5348 5352 5356 5360 5365 5369 5374 5378 5383 5388 5394 5399 5404 5409 5414 5419 5424 5428 5432 5436 5440 5444 5448 5451 5454 5457 5461 5466 5470 5474 5477 5480 5484 5487 5489 5492 5494 5497 5499 5501 5503 5505 5508 5510 5512 5514 5516 5518 5519
5279 5277 5275 5273 5271 5269 5267 5266 5265 5264 5264 5264 5264 5264 5265 5266 5267 5268 5269 5270 5273 5275 5278 5281 5285 5289 5290 5293 5298 5304 5309 5314 5319 5324 5328 5333 5338 5343 5347 5352 5356 5360 5364 5369 5373 5378 5384 5389 5394 5399 5404 5410 5415 5419 5423 5427 5431 5435 5439 5444 5448 5451 5455 5459 5463 5467 5470 5473 5477 5481 5484 5486 5488 5490 5493 5495 5498 5500 5502 5504 5506 5509 5510 5513 5514 5516
5273 5271 5270 5268 5266 5264 5263 5262 5261 5260 5259 5259 5259 5260 5260 5261 5262 5263 5264 5266 5268 5271 5273 5276 5280 5283 5285 5288 5293 5298 5304 5309 5313 5318 5323 5328 5333 5338 5344 5348 5352 5356 5360 5364 5369 5374 5379 5384 5389 5395 5400 5406 5410 5414 5419 5423 5427 5431 5435 5439 5444 5448 5452 5455 5459 5463 5466 5470 5474 5477 5480 5482 5484 5487 5489 5492 5494 5497 5499 5501 5503 5505 5507 5509 5511 5513
5269 5267 5265 5264 5262 5260 5259 5258 5257 5256 5255 5255 5255 5255 5256 5257 5257 5258 5259 5262 5264 5266 5268 5271 5274 5277 5279 5284 5289 5294 5299 5304 5309 5314 5319 5324 5329 5334 5339 5344 5348 5351 5356 5360 5365 5371 5376 5381 5385 5390 5396 5400 5405 5410 5414 5419 5423 5427 5431 5435 5439 5444 5447 5451 5454 5458 5462 5466 5470 5474 5477 5479 5481 5484 5486 5489 5491 5494 5495 5498 5499 5501 5504 5506 5508 5509
5266 5264 5261 5259 5258 5256 5254 5253 5252 5252 5251 5251 5251 5251 5252 5253 5253 5254 5256 5258 5260 5262 5264 5267 5269 5272 5276 5280 5285 5290 5295 5300 5305 5310 5315 5320 5324 5330 5335 5340 5344 5348 5353 5358 5363 5368 5372 5377 5381 5386 5391 5396 5401 5405 5410 5415 5419 5423 5427 5431 5435 5439 5443 5447 5451 5455 5459 5464 5467 5470 5473 5475 5477 5479 5482 5485 5488 5490 5492 5494 5496 5498 5500 5502 5504 5506
5263 5261 5258 5256 5254 5252 5250 5249 5249 5248 5247 5247 5247 5248 5248 5249 5250 5251 5252 5254 5256 5258 5260 5263 5266 5269 5273 5278 5282 5288 5293 5298 5303 5309 5313 5317 5321 5326 5331 5335 5340 5344 5350 5355 5360 5364 5368 5373 5378 5382 5387 5393 5397 5402 5406 5411 5415 5419 5424 5428 5432 5436 5440 5444 5448 5452 5456 5460 5464 5467 5469 5471 5474 5476 5479 5482 5484 5487 5489 5491 5493 5495 5497 5499 5501 5503
5260 5258 5255 5253 5250 5249 5247 5246 5245 5244 5244 5244 5244 5244 5245 5245 5246 5247 5249 5251 5253 5255 5257 5260 5264 5267 5271 5276 5281 5286 5291 5297 5303 5308 5311 5313 5317 5322 5327 5331 5336 5341 5346 5351 5356 5360 5365 5369 5374 5379 5384 5389 5394 5399 5403 5408 5412 5416 5420 5424 5429 5433 5437 5441 5445 5449 5453 5458 5461 5463 5465 5468 5470 5473 5476 5479 5481 5483 5485 5488 5490 5492 5494 5496 5498 5499
5257 5255 5252 5250 5248 5245 5244 5243 5242 5241 5240 5240 5241 5241 5242 5243 5244 5245 5246 5249 5251 5253 5255 5258 5262 5265 5270 5274 5279 5285 5290 5296 5301 5305 5308 5311 5314 5319 5323 5327 5332 5337 5343 5348 5352 5357 5361 5366 5371 5376 5381 5386 5391 5396 5400 5404 5409 5413 5417 5421 5425 5430 5434 5438 5442 5446 5451 5454 5457 5459 5462 5465 5467 5470 5473 5475 5477 5480 5482 5484 5487 5489 5491 5493 5494 5496